User: anonymous   Login
Location: Klickitat County Star Party
(45.8642°N, 120.6771°W)
Time: 00:22:07
(UTC-07:00)
Language:

SPROUT - Orbit

View from above orbital plane
View from above orbital plane
View from above satellite
View from above satellite

Ground track
Ground track

The orbit data is extracted from the following two-line orbital elements,

1 39770U 14029E   19145.21028785  .00000646  00000-0  77701-4 0  9997
2 39770  97.8821 248.6664 0009298 158.2050 201.9558 14.87311961271199
Epoch (UTC): 25 May 2019 05:02:48
Eccentricity: 0.0009298
inclination: 97.8821°
perigee height: 600 km
apogee height: 613 km
right ascension of ascending node: 248.6664°
argument of perigee: 158.2050°
revolutions per day: 14.87311961
mean anomaly at epoch: 201.9558°
orbit number at epoch: 27119

The dashed part of the orbit path shows where the satellite is in the earth's shadow,  

DLR